FW4657 Weather Reports


time (UTC)temp
C
wind
direction
speed
KPH
gust
KPH
rain 1hr
cm
rain 24hr
cm
rain mn
cm
humidity
%
barometer
mb
20260505185947 26 65 3.2 6.4 0.00 0.00 0.00 38 1006.6
20260505185444 26 313 3.2 9.7 0.00 0.00 0.00 38 1006.9
20260505184940 27 146 3.2 4.8 0.00 0.00 0.00 38 1006.9
20260505184437 27 6 1.6 9.7 0.00 0.00 0.00 38 1006.6
20260505183933 27 328 3.2 11.3 0.00 0.00 0.00 38 1006.9
20260505183431 27 343 6.4 11.3 0.00 0.00 0.00 38 1006.9
20260505182927 27 46 0.0 4.8 0.00 0.00 0.00 39 1006.9
20260505182425 27 102 1.6 6.4 0.00 0.00 0.00 41 1006.9
20260505181920 27 171 4.8 6.4 0.00 0.00 0.00 42 1007.3
20260505181418 26 184 3.2 4.8 0.00 0.00 0.00 43 1006.9
20260505180915 26 328 3.2 6.4 0.00 0.00 0.00 43 1007.3
20260505180411 26 341 1.6 3.2 0.00 0.00 0.00 42 1007.3
20260505175908 26 185 1.6 9.7 0.00 0.00 0.00 42 1007.3
20260505175404 26 325 9.7 11.3 0.00 0.00 0.00 43 1007.6
20260505174901 26 14 1.6 6.4 0.00 0.00 0.00 43 1007.3
20260505174358 26 320 3.2 9.7 0.00 0.00 0.00 43 1007.6
20260505173854 26 340 0.0 4.8 0.00 0.00 0.00 44 1007.6
20260505173351 26 65 0.0 4.8 0.00 0.00 0.00 44 1007.9
20260505172848 26 312 4.8 9.7 0.00 0.00 0.00 44 1007.9
20260505172346 26 81 4.8 9.7 0.00 0.00 0.00 45 1007.9
20260505171845 25 112 6.4 9.7 0.00 0.00 0.00 45 1007.9
20260505171342 26 60 0.0 4.8 0.00 0.00 0.00 46 1007.9
20260505170839 25 149 6.4 6.4 0.00 0.00 0.00 45 1007.9
20260505170336 25 358 3.2 4.8 0.00 0.00 0.00 46 1007.9
20260505165831 25 85 3.2 3.2 0.00 0.00 0.00 45 1008.3
20260505165327 25 66 1.6 6.4 0.00 0.00 0.00 47 1008.3
20260505164822 25 18 1.6 4.8 0.00 0.00 0.00 47 1008.3
20260505164320 25 75 0.0 6.4 0.00 0.00 0.00 46 1008.6
20260505163818 23 141 0.0 11.3 0.00 0.00 0.00 47 1008.6
20260505163316 25 37 0.0 4.8 0.00 0.00 0.00 46 1009.0
20260505162814 23 212 1.6 3.2 0.00 0.00 0.00 47 1009.0
20260505162310 23 286 1.6 4.8 0.00 0.00 0.00 48 1009.3
20260505161808 23 333 3.2 3.2 0.00 0.00 0.00 48 1009.0
20260505161305 23 166 0.0 6.4 0.00 0.00 0.00 48 1009.3
20260505160802 25 78 3.2 6.4 0.00 0.00 0.00 48 1009.3
20260505160300 25 107 0.0 6.4 0.00 0.00 0.00 48 1009.3
20260505153238 23 337 4.8 6.4 0.00 0.00 0.00 47 1009.6
20260505152735 23 41 0.0 6.4 0.00 0.00 0.00 48 1009.3
20260505152231 23 92 3.2 6.4 0.00 0.00 0.00 48 1010.0
20260505151726 23 63 1.6 3.2 0.00 0.00 0.00 48 1010.0
20260505151224 23 40 1.6 4.8 0.00 0.00 0.00 47 1010.0
20260505150720 23 50 3.2 3.2 0.00 0.00 0.00 48 1010.0
20260505150217 23 60 1.6 4.8 0.00 0.00 0.00 48 1010.0
20260505140645 21 98 3.2 6.4 0.00 0.00 0.00 52 1010.0
20260505140142 21 111 3.2 4.8 0.00 0.00 0.00 52 1010.0
20260505130106 18 69 3.2 4.8 0.00 0.00 0.00 58 1010.8
20260505124555 17 64 1.6 1.6 0.00 0.00 0.00 62 1011.1
20260505124052 16 38 0.0 3.2 0.00 0.00 0.00 62 1011.1
20260505123548 16 126 0.0 1.6 0.00 0.00 0.00 64 1011.1
20260505123045 15 81 3.2 3.2 0.00 0.00 0.00 65 1010.8
20260505122542 15 108 3.2 4.8 0.00 0.00 0.00 66 1010.4
20260505122039 15 114 3.2 4.8 0.00 0.00 0.00 66 1010.8
20260505121535 15 98 3.2 3.2 0.00 0.00 0.00 68 1010.8
20260505121032 14 85 3.2 4.8 0.00 0.00 0.00 68 1010.8
20260505120528 13 98 3.2 3.2 0.00 0.00 0.00 70 1010.8
20260505120024 13 76 3.2 3.2 0.00 0.00 0.00 71 1010.8
20260505115518 13 107 3.2 4.8 0.00 0.00 0.00 70 1010.8
20260505115017 14 82 0.0 3.2 0.00 0.00 0.00 69 1010.8
20260505114513 13 54 1.6 3.2 0.00 0.00 0.00 71 1010.8
20260505114009 13 1 0.0 0.0 0.00 0.00 0.00 73 1011.1
20260505113506 13 359 0.0 0.0 0.00 0.00 0.00 72 1011.1
20260505113003 13 74 0.0 1.6 0.00 0.00 0.00 71 1011.1
20260505112459 13 50 0.0 1.6 0.00 0.00 0.00 74 1011.1
20260505111956 13 102 1.6 4.8 0.00 0.00 0.00 72 1011.1
20260505111450 13 96 1.6 3.2 0.00 0.00 0.00 72 1011.1
20260505110947 13 67 0.0 0.0 0.00 0.00 0.00 70 1011.1
20260505110444 13 51 0.0 0.0 0.00 0.00 0.00 70 1011.4
20260505101914 9 226 0.0 0.0 0.00 0.00 0.00 83 1011.1
20260505101409 10 168 0.0 0.0 0.00 0.00 0.00 81 1011.1
20260505100905 10 173 0.0 0.0 0.00 0.00 0.00 80 1011.4
20260505100402 10 171 0.0 0.0 0.00 0.00 0.00 79 1011.1
20260505095857 10 171 0.0 0.0 0.00 0.00 0.00 79 1011.1
20260505095355 10 198 0.0 0.0 0.00 0.00 0.00 77 1011.1
20260505094851 11 135 0.0 1.6 0.00 0.00 0.00 74 1011.1
20260505094348 11 128 1.6 1.6 0.00 0.00 0.00 74 1011.1
20260505093844 11 188 0.0 0.0 0.00 0.00 0.00 75 1011.1
20260505093341 10 147 1.6 1.6 0.00 0.00 0.00 77 1011.1
20260505092838 10 213 0.0 0.0 0.00 0.00 0.00 82 1011.1
20260505092337 8 221 0.0 0.0 0.00 0.00 0.00 83 1011.1
20260505091833 10 319 0.0 0.0 0.00 0.00 0.00 82 1011.1
20260505091332 10 298 0.0 0.0 0.00 0.00 0.00 81 1011.1
20260505090829 10 272 0.0 0.0 0.00 0.00 0.00 80 1011.1
20260505090327 10 305 0.0 0.0 0.00 0.00 0.00 78 1011.1
20260505085824 10 258 0.0 0.0 0.00 0.00 0.00 77 1011.1
20260505085322 11 265 1.6 1.6 0.00 0.00 0.00 76 1011.1
20260505084819 11 245 0.0 3.2 0.00 0.00 0.00 74 1010.8
20260505084318 11 321 0.0 0.0 0.00 0.00 0.00 75 1011.4
20260505083814 10 336 0.0 0.0 0.00 0.00 0.00 77 1011.1
20260505083312 11 216 0.0 0.0 0.00 0.00 0.00 76 1011.1
20260505082808 11 235 0.0 1.6 0.00 0.00 0.00 76 1011.4
20260505082305 10 157 0.0 0.0 0.00 0.00 0.00 78 1011.4
20260505081801 10 168 0.0 0.0 0.00 0.00 0.00 78 1011.4
20260505081258 10 33 0.0 0.0 0.00 0.00 0.00 80 1011.4
20260505080755 10 182 0.0 0.0 0.00 0.00 0.00 80 1011.4
20260505080251 10 234 0.0 0.0 0.00 0.00 0.00 81 1011.4
20260505075746 10 170 0.0 0.0 0.00 0.00 0.00 80 1011.4
20260505075244 10 292 0.0 0.0 0.00 0.00 0.00 80 1011.4
20260505074741 10 308 0.0 0.0 0.00 0.00 0.00 78 1011.4
20260505074238 10 220 0.0 0.0 0.00 0.00 0.00 79 1011.1
20260505073736 10 182 0.0 0.0 0.00 0.00 0.00 79 1011.1
20260505073233 10 310 0.0 0.0 0.00 0.00 0.00 78 1011.4
20260505072730 10 327 0.0 0.0 0.00 0.00 0.00 78 1011.4
20260505072226 10 223 0.0 0.0 0.00 0.00 0.00 78 1011.4
20260505071721 10 334 1.6 1.6 0.00 0.00 0.00 77 1011.4
20260505071219 10 246 1.6 3.2 0.00 0.00 0.00 77 1011.4
20260505070716 10 335 0.0 0.0 0.00 0.00 0.00 76 1011.1
20260505070212 11 283 1.6 3.2 0.00 0.00 0.00 74 1011.1
20260505065708 10 308 0.0 0.0 0.00 0.00 0.00 76 1011.1
20260505065205 11 283 0.0 0.0 0.00 0.00 0.00 74 1011.4
20260505064702 11 287 0.0 0.0 0.00 0.00 0.00 74 1011.4
20260505064200 11 324 0.0 1.6 0.00 0.00 0.00 73 1011.4
20260505063657 11 334 0.0 1.6 0.00 0.00 0.00 72 1011.4
20260505063153 11 215 0.0 1.6 0.00 0.00 0.00 72 1011.1
20260505062649 11 83 0.0 3.2 0.00 0.00 0.00 70 1011.4
20260505062147 11 285 0.0 3.2 0.00 0.00 0.00 71 1011.4
20260505061644 11 196 0.0 0.0 0.00 0.00 0.00 70 1011.4
20260505061143 11 270 0.0 1.6 0.00 0.00 0.00 70 1011.4
20260505060640 11 310 1.6 3.2 0.00 0.00 0.00 69 1011.4
20260505060136 11 29 0.0 3.2 0.00 0.00 0.00 70 1011.4
20260505055631 11 196 0.0 1.6 0.00 0.00 0.00 69 1011.4
20260505055129 11 108 0.0 3.2 0.00 0.00 0.00 69 1011.4
20260505054626 11 323 0.0 0.0 0.00 0.00 0.00 71 1011.4
20260505054124 11 86 0.0 0.0 0.00 0.00 0.00 69 1011.4
20260505053621 11 331 0.0 0.0 0.00 0.00 0.00 69 1011.4
20260505053117 11 202 0.0 0.0 0.00 0.00 0.00 68 1011.1
20260505052614 11 54 0.0 0.0 0.00 0.00 0.00 68 1011.4
20260505052112 11 153 0.0 0.0 0.00 0.00 0.00 70 1011.4
20260505051608 11 92 0.0 0.0 0.00 0.00 0.00 69 1011.4
20260505051107 11 175 0.0 0.0 0.00 0.00 0.00 70 1011.1
20260505050604 11 300 0.0 0.0 0.00 0.00 0.00 70 1011.4
20260505041532 8 317 0.0 0.0 0.00 0.00 0.00 82 1011.1
20260505041030 8 311 0.0 0.0 0.00 0.00 0.00 82 1010.8
20260505040527 8 316 0.0 0.0 0.00 0.00 0.00 82 1010.8
20260505040024 8 314 0.0 0.0 0.00 0.00 0.00 83 1011.1
20260505035520 8 306 0.0 0.0 0.00 0.00 0.00 83 1010.8
20260505035017 8 321 0.0 0.0 0.00 0.00 0.00 84 1010.8
20260505034513 7 344 0.0 3.2 0.00 0.00 0.00 85 1010.8
20260505034010 7 122 0.0 0.0 0.00 0.00 0.00 85 1010.4
20260505033507 8 328 0.0 0.0 0.00 0.00 0.00 84 1010.8
20260505033005 8 259 0.0 0.0 0.00 0.00 0.00 83 1010.4
20260505032502 8 302 0.0 0.0 0.00 0.00 0.00 83 1010.4
20260505031959 8 311 0.0 0.0 0.00 0.00 0.00 83 1010.4
20260505031455 8 352 0.0 0.0 0.00 0.00 0.00 81 1010.4
20260505030952 8 284 0.0 0.0 0.00 0.00 0.00 81 1010.4
20260505030449 8 281 0.0 0.0 0.00 0.00 0.00 83 1010.4
20260505025944 8 308 0.0 0.0 0.00 0.00 0.00 82 1010.4
20260505025441 8 353 0.0 0.0 0.00 0.00 0.00 81 1010.4
20260505024940 8 313 0.0 0.0 0.00 0.00 0.00 80 1010.4
20260505024437 8 299 0.0 0.0 0.00 0.00 0.00 80 1010.4
20260505023934 10 301 0.0 0.0 0.00 0.00 0.00 76 1010.8
20260505023431 9 301 0.0 0.0 0.00 0.00 0.00 77 1010.8
20260505022928 10 344 0.0 0.0 0.00 0.00 0.00 75 1010.8
20260505022426 10 302 0.0 0.0 0.00 0.00 0.00 75 1010.8
20260505021923 10 292 0.0 0.0 0.00 0.00 0.00 76 1010.8
20260505021419 10 291 0.0 0.0 0.00 0.00 0.00 77 1010.4
20260505020915 10 283 0.0 0.0 0.00 0.00 0.00 77 1010.8
20260505020410 10 296 0.0 0.0 0.00 0.00 0.00 76 1010.4
20260505015908 10 286 0.0 0.0 0.00 0.00 0.00 77 1010.4
20260505015405 10 335 0.0 0.0 0.00 0.00 0.00 78 1010.4
20260505014902 10 286 0.0 0.0 0.00 0.00 0.00 77 1010.8
20260505014359 10 312 0.0 0.0 0.00 0.00 0.00 77 1010.4
20260505013856 10 286 0.0 0.0 0.00 0.00 0.00 77 1010.4
20260505013353 10 284 0.0 0.0 0.00 0.00 0.00 77 1010.4
20260505012851 10 288 0.0 0.0 0.00 0.00 0.00 77 1010.0
20260505012349 10 295 0.0 0.0 0.00 0.00 0.00 77 1010.0
20260505011844 11 285 0.0 0.0 0.00 0.00 0.00 76 1010.0
20260505011341 11 297 0.0 0.0 0.00 0.00 0.00 75 1010.0
20260505010837 11 317 0.0 0.0 0.00 0.00 0.00 74 1010.0
20260505010333 11 302 0.0 0.0 0.00 0.00 0.00 74 1010.0
20260505005830 11 301 0.0 0.0 0.00 0.00 0.00 71 1010.0
20260505005327 11 290 0.0 0.0 0.00 0.00 0.00 72 1009.6
20260505004825 11 336 0.0 0.0 0.00 0.00 0.00 71 1009.6
20260505004320 11 333 0.0 0.0 0.00 0.00 0.00 71 1009.6
20260505003818 12 313 0.0 0.0 0.00 0.00 0.00 70 1009.6
20260505003315 11 318 0.0 0.0 0.00 0.00 0.00 69 1009.6
20260505002811 11 332 0.0 0.0 0.00 0.00 0.00 70 1009.3
20260505002308 12 284 0.0 0.0 0.00 0.00 0.00 70 1009.3
20260505001807 12 296 0.0 0.0 0.00 0.00 0.00 68 1009.3
20260505001303 12 306 0.0 0.0 0.00 0.00 0.00 67 1009.0
20260505000800 13 282 0.0 0.0 0.00 0.00 0.00 65 1009.0
20260505000258 13 306 0.0 0.0 0.00 0.00 0.00 65 1009.0
20260504235754 13 327 0.0 0.0 0.00 0.00 0.00 64 1009.0
20260504235251 13 298 0.0 0.0 0.00 0.00 0.00 63 1009.0
20260504234748 13 285 0.0 0.0 0.00 0.00 0.00 65 1008.3
20260504234246 13 286 0.0 0.0 0.00 0.00 0.00 64 1008.6
20260504233742 13 254 0.0 0.0 0.00 0.00 0.00 61 1008.6
20260504233237 14 208 0.0 0.0 0.00 0.00 0.00 61 1008.3
20260504232735 14 335 0.0 0.0 0.00 0.00 0.00 60 1008.3
20260504232232 14 297 0.0 0.0 0.00 0.00 0.00 60 1008.6
20260504231729 15 284 0.0 0.0 0.00 0.00 0.00 58 1008.3
20260504231225 15 194 1.6 1.6 0.00 0.00 0.00 57 1007.9
20260504230721 16 221 0.0 0.0 0.00 0.00 0.00 52 1007.9
20260504230220 16 236 0.0 0.0 0.00 0.00 0.00 51 1008.3
20260504225718 17 284 0.0 1.6 0.00 0.00 0.00 52 1008.3
20260504225214 17 40 1.6 1.6 0.00 0.00 0.00 49 1007.9
20260504224711 16 336 1.6 1.6 0.00 0.00 0.00 54 1007.9
20260504224209 16 215 0.0 3.2 0.00 0.00 0.00 52 1007.9
20260504223705 16 236 0.0 1.6 0.00 0.00 0.00 51 1007.9
20260504223200 17 169 0.0 1.6 0.00 0.00 0.00 53 1007.9
20260504222658 17 285 4.8 6.4 0.00 0.00 0.00 50 1007.9
20260504222154 16 302 0.0 0.0 0.00 0.00 0.00 56 1007.9
20260504221652 16 24 1.6 1.6 0.00 0.00 0.00 52 1007.9
20260504221149 16 221 0.0 0.0 0.00 0.00 0.00 53 1007.9
20260504220645 16 222 0.0 3.2 0.00 0.00 0.00 57 1007.9
20260504220143 16 196 1.6 3.2 0.00 0.00 0.00 56 1007.9
20260504215639 17 52 0.0 1.6 0.00 0.00 0.00 48 1007.9
20260504215136 17 302 0.0 1.6 0.00 0.00 0.00 48 1008.3
20260504214632 17 199 0.0 0.0 0.00 0.00 0.00 50 1007.9
20260504214130 18 343 1.6 4.8 0.00 0.00 0.00 45 1007.9
20260504213625 18 177 0.0 0.0 0.00 0.00 0.00 47 1008.3
20260504213122 19 299 0.0 6.4 0.00 0.00 0.00 45 1008.3
20260504212618 19 222 1.6 3.2 0.00 0.00 0.00 46 1008.3
20260504212115 19 199 0.0 3.2 0.00 0.00 0.00 44 1007.9
20260504211613 19 74 0.0 6.4 0.00 0.00 0.00 45 1008.3
20260504211109 18 37 0.0 3.2 0.00 0.00 0.00 47 1008.3
20260504210607 18 237 1.6 4.8 0.00 0.00 0.00 46 1008.3
20260504205601 18 317 3.2 4.8 0.00 0.00 0.00 47 1007.9
20260504205058 18 85 0.0 3.2 0.00 0.00 0.00 48 1007.9
20260504204556 18 302 1.6 9.7 0.00 0.00 0.00 48 1008.3
20260504204055 18 31 0.0 4.8 0.00 0.00 0.00 48 1008.3
20260504203553 18 330 0.0 4.8 0.00 0.00 0.00 48 1007.9
20260504203050 18 49 0.0 4.8 0.00 0.00 0.00 48 1008.3
20260504202545 19 312 1.6 3.2 0.00 0.00 0.00 47 1008.3
20260504202042 18 1 0.0 3.2 0.00 0.00 0.00 48 1008.3
20260504201539 17 20 0.0 3.2 0.00 0.00 0.00 51 1007.9
20260504201037 17 226 0.0 1.6 0.00 0.00 0.00 50 1008.3
20260504200533 17 184 0.0 0.0 0.00 0.00 0.00 50 1008.3
20260504200031 17 317 1.6 6.4 0.00 0.00 0.00 50 1008.3
20260504195526 17 8 1.6 3.2 0.00 0.00 0.00 51 1008.3
20260504195023 18 40 0.0 3.2 0.00 0.00 0.00 50 1008.3
20260504194520 17 84 0.0 6.4 0.00 0.00 0.00 52 1008.6
20260504194015 17 320 0.0 1.6 0.00 0.00 0.00 51 1008.6
20260504193512 17 339 0.0 3.2 0.00 0.00 0.00 51 1008.6
20260504193011 17 1 4.8 4.8 0.00 0.00 0.00 53 1008.6
20260504192509 17 302 1.6 4.8 0.00 0.00 0.00 53 1009.0
20260504192007 16 234 0.0 4.8 0.00 0.00 0.00 54 1009.0
20260504191504 16 89 1.6 6.4 0.00 0.00 0.00 54 1009.0
20260504191000 15 27 3.2 6.4 0.00 0.00 0.00 55 1009.0
20260504190455 15 230 0.0 3.2 0.00 0.00 0.00 56 1009.0